Погода в Брахлове

Россия / Брянская область     52°21′55″N   32°27′50″E
темп.,
°C
ветер,
м/с
пор.,
м/с
влажн.,
%
обл.,
%
осадки,
мм/ч
давл.,
гПа
погр.,
м
9 мая, вс
вс900:00+4сз71483100 0.1 1013589
03:00+3сз6148391 0.1 1015471
06:00+1сз513870 0.0 1017396
09:00+6сз711675 0.0 10191087
12:00+9сз8104989 0.0 10202119
15:00+11ссз7943100 0.0 10212518
18:00+11ссз58535 0.0 10232144
21:00+6сз33694 0.0 102535
10 мая, пн
пн1000:00+4сз33695 0.0 102627
03:00+3ссз22675 0.0 102815
06:00+3с12695 0.0 102811
09:00+9ссв22555 0.0 1029381
12:00+13с33445 0.0 10281395
15:00+15ссв34425 0.0 10271556
18:00+14ссв35530 0.0 10261373
21:00+9св34680 0.0 102743
11 мая, вт
вт1100:00+6св36750 0.0 102784
03:00+5ссв47760 0.0 1027108
06:00+5ссв5137430 0.0 1026293
09:00+8ссв51271100 0.0 1025380
12:00+15св710635 0.0 1023714
15:00+18всв8106416 0.0 10221147
18:00+17всв7107488 0.2 10221138
21:00+12в39934 0.6 1022208
12 мая, ср
ср1200:00+9в49935 0.0 1022178
03:00+7в379187 0.0 1022135
06:00+8всв51189100 0.2 1021385
09:00+10в71284100 0.3 10201125
12:00+12в61173100 0.3 10191514
15:00+9в71489100 3.1 1017872
18:00+10вюв61287100 1.4 1016997
21:00+9в61192100 1.7 1015553
13 мая, чт
чт1300:00+9вюв71392100 1.6 1014557
03:00+7юв6129410 2.1 1014406
06:00+6юв5119723 0.0 1015364
09:00+11ююв58780 0.0 1015699
12:00+14ююв6863100 0.0 10151284
15:00+17ююв5861100 0.0 10141617
18:00+17юв5974100 0.2 1013712
21:00+13в4129185 0.4 1013254